Simultaneous Nadir Overpasses (SNOs) Predictions

Prediction of SNOs between METOP-B and NOAA-19 Satellite Orbit:

Table of predicted SNOs for the next 14.0 days since TLE Epoch: 4/15/2014
Index Date (METOP-B) Time (METOP-B) Lat,Lon (METOP-B) SZA (METOP-B ) Date (NOAA-19) Time (NOAA-19) Lat,Lon (NOAA-19) SZA (NOAA-19 ) Distance(km) Time Diff (sec)
1 04/23/2014 15:08:48 74.12, -51.94 61.44 04/23/2014 15:07:36 74.13, -53.04 61.49 33.73 72
2 04/23/2014 15:59:35 -73.90, 114.85 118.78 04/23/2014 15:58:34 -73.91, 114.77 118.77 2.65 61
3 04/23/2014 16:50:15 73.85, -77.94 61.16 04/23/2014 16:49:34 73.85, -77.85 61.17 2.63 41
4 04/23/2014 17:40:57 -73.88, 89.45 118.83 04/23/2014 17:40:37 -73.87, 89.34 118.83 3.53 20
5 04/23/2014 18:31:37 73.83,-103.33 61.12 04/23/2014 18:31:37 73.82,-103.28 61.11 2.00 0
6
